Martinsburg, PA

9:55 AM EST on February 12, 2016 (GMT -0500)
Altoona-Blair County

Weather History for KAOO - October, 2014

Change the Weather History Date:

Tuesday, October 14, 2014

  Actual Average Record
Temperature  
Mean Temperature 67 °F 52 °F  
Max Temperature 72 °F 62 °F 80 °F (1954)
Min Temperature 61 °F 41 °F 26 °F (1988)
Degree Days  
Heating Degree Days 0 14  
Month to date heating degree days 135 164  
Since 1 July heating degree days 293 335  
Cooling Degree Days 2 0  
Month to date cooling degree days 2 0  
Year to date cooling degree days 521 522  
Growing Degree Days 16 (Base 50)    
Moisture  
Dew Point 63 °F    
Average Humidity 86    
Maximum Humidity 93    
Minimum Humidity 79    
Precipitation  
Precipitation 0.05 in 0.08 in 1.65 in (1955)
Month to date precipitation 1.14 1.18  
Year to date precipitation 30.52 25.56  
Sea Level Pressure  
Sea Level Pressure 30.01 in    
Wind  
Wind Speed 13 mph (SSE)    
Max Wind Speed 22 mph    
Max Gust Speed 30 mph    
Visibility 10 miles    
Events Rain    
T = Trace of Precipitation, MM = Missing Value Source: NWS Daily Summary

Daily Weather History Graph

Daily Weather History Graph

Search for Another Location

Airport or City:

Trip Planner

Search our weather history database for the weather conditions in past years. The results will help you decide how hot, cold, wet, or windy it might be!

Date:

Astronomy

Oct. 14, 2014 Rise Set
Actual Time 7:22 AM EDT 6:34 PM EDT
Civil Twilight 6:55 AM EDT 7:02 PM EDT
Nautical Twilight 6:24 AM EDT 7:33 PM EDT
Astronomical Twilight 5:52 AM EDT 8:05 PM EDT
Moon 11:38 PM EDT (10/14) 1:22 PM EDT (10/14)
Length of Visible Light 12h 06m
Length of Day
11h 11m
Waning Gibbous, 61% of the Moon is Illuminated
Oct 14
Waning Gibbous
Oct 15
Last Quarter
Oct 23
New
Oct 30
First Quarter
Nov 6
Full

Hourly Weather History & Observations

Time (EDT) Temp. Dew Point Humidity Pressure Visibility Wind Dir Wind Speed Gust Speed Precip Events Conditions
12:39 AM 62.1 °F 59.0 °F 90% 30.15 in 10.0 mi South 9.2 mph - N/A   Mostly Cloudy
12:53 AM 62.1 °F 59.0 °F 90% 30.14 in 10.0 mi South 9.2 mph - N/A   Mostly Cloudy
1:38 AM 61.0 °F 60.1 °F 97% 30.14 in 10.0 mi SSE 3.5 mph - N/A   Overcast
1:53 AM 62.1 °F 60.1 °F 93% 30.14 in 10.0 mi South 3.5 mph - N/A   Overcast
2:53 AM 63.0 °F 61.0 °F 93% 30.12 in 10.0 mi SW 6.9 mph - N/A   Overcast
3:53 AM 63.0 °F 61.0 °F 93% 30.10 in 9.0 mi SW 8.1 mph - N/A   Overcast
4:53 AM 64.9 °F 63.0 °F 93% 30.08 in 6.0 mi SSE 18.4 mph 23.0 mph N/A   Overcast
5:32 AM 66.0 °F 63.0 °F 90% 30.08 in 10.0 mi South 11.5 mph 20.7 mph N/A   Overcast
5:53 AM 64.9 °F 63.0 °F 93% 30.07 in 10.0 mi SSE 12.7 mph 21.9 mph N/A   Overcast
6:53 AM 64.9 °F 62.1 °F 90% 30.07 in 10.0 mi South 10.4 mph - N/A   Overcast
7:53 AM 64.9 °F 62.1 °F 90% 30.07 in 10.0 mi South 13.8 mph 21.9 mph N/A   Overcast
8:53 AM 66.9 °F 63.0 °F 87% 30.07 in 10.0 mi South 11.5 mph 19.6 mph N/A   Overcast
9:29 AM 66.9 °F 63.0 °F 87% 30.07 in 10.0 mi South 17.3 mph 24.2 mph N/A   Overcast
9:53 AM 68.0 °F 63.0 °F 84% 30.06 in 10.0 mi SSE 13.8 mph 20.7 mph N/A   Overcast
10:53 AM 68.0 °F 63.0 °F 84% 30.05 in 10.0 mi SSE 15.0 mph 20.7 mph N/A   Overcast
11:31 AM 68.0 °F 64.0 °F 87% 30.05 in 10.0 mi South 13.8 mph 20.7 mph 0.00 in   Overcast
11:53 AM 69.1 °F 64.0 °F 84% 30.03 in 10.0 mi South 13.8 mph 24.2 mph 0.00 in   Overcast
12:08 PM 69.1 °F 64.9 °F 87% 30.05 in 10.0 mi South 12.7 mph 23.0 mph N/A   Overcast
12:53 PM 69.1 °F 64.0 °F 84% 30.01 in 10.0 mi SSE 15.0 mph 23.0 mph N/A   Overcast
1:53 PM 70.0 °F 64.0 °F 81% 29.99 in 10.0 mi SSE 16.1 mph 27.6 mph N/A   Overcast
2:53 PM 71.1 °F 64.9 °F 81% 29.97 in 10.0 mi SSE 17.3 mph 28.8 mph 0.00 in   Overcast
3:53 PM 70.0 °F 64.0 °F 81% 29.95 in 10.0 mi SSE 10.4 mph - 0.00 in   Overcast
4:35 PM 70.0 °F 64.9 °F 84% 29.95 in 5.0 mi SSE 13.8 mph 26.5 mph 0.00 in Rain Light Rain
4:53 PM 70.0 °F 64.0 °F 81% 29.94 in 10.0 mi SSE 15.0 mph 25.3 mph 0.00 in   Overcast
5:07 PM 70.0 °F 64.0 °F 81% 29.95 in 10.0 mi SSE 11.5 mph - 0.00 in Rain Light Rain
5:33 PM 71.1 °F 64.0 °F 78% 29.95 in 10.0 mi SSE 13.8 mph - 0.00 in   Overcast
5:53 PM 70.0 °F 64.0 °F 81% 29.94 in 10.0 mi South 13.8 mph 20.7 mph 0.00 in   Overcast
6:53 PM 68.0 °F 64.9 °F 90% 29.92 in 4.0 mi SSE 11.5 mph 21.9 mph 0.01 in Rain Light Rain
7:43 PM 68.0 °F 64.9 °F 90% 29.94 in 10.0 mi South 15.0 mph 25.3 mph 0.01 in   Overcast
7:53 PM 68.0 °F 64.9 °F 90% 29.92 in 10.0 mi South 13.8 mph 24.2 mph 0.01 in   Overcast
8:15 PM 69.1 °F 64.9 °F 87% 29.94 in 10.0 mi SSE 13.8 mph 21.9 mph N/A   Overcast
8:53 PM 69.1 °F 64.9 °F 87% 29.91 in 10.0 mi SSE 16.1 mph 23.0 mph N/A   Overcast
9:15 PM 69.1 °F 64.9 °F 87% 29.94 in 9.0 mi SSE 8.1 mph 19.6 mph 0.00 in Rain Light Rain
9:53 PM 68.0 °F 66.0 °F 93% 29.92 in 9.0 mi SSE 12.7 mph - 0.02 in Rain Light Rain
10:27 PM 68.0 °F 66.0 °F 93% 29.93 in 10.0 mi SSE 10.4 mph 20.7 mph 0.00 in Rain Light Rain
10:50 PM 68.0 °F 64.4 °F 88% 29.92 in 10.0 mi SSE 12.7 mph 21.9 mph 0.00 in   Overcast
10:53 PM 68.0 °F 64.9 °F 90% 29.90 in 10.0 mi SSE 11.5 mph - 0.00 in   Overcast
11:53 PM 69.1 °F 64.9 °F 87% 29.89 in 10.0 mi South 8.1 mph 18.4 mph 0.00 in   Overcast